Regional Weather Roundup
Issued by NWS

Home | Current Version | Previous Version | Graphics & Text | Print | Product List | Glossary On
Versions: 1 2 3 4 5 6 7 8 9 10 11 12 13 14 15 16 17 18 19 20 21 22 23 24 25 26 27 28 29 30 31 32 33 34 35 36 37 38 39 40 41 42 43 44 45 46 47 48 49 50
000
ASUS43 KTOP 290408
RWRKS

WEATHER ROUNDUP FOR KANSAS
NATIONAL WEATHER SERVICE GOODLAND KS
1100 PM CDT THU JUL 28 2016

NOTE:  "FAIR" INDICATES FEW OR NO CLOUDS BELOW 12,000 FEET WITH NO
SIGNIFICANT WEATHER AND/OR OBSTRUCTIONS TO VISIBILITY.

KSZ001>006-013>018-027>032-041>047-290500-
NORTHWEST KANSAS

CITY           SKY/WX    TMP DP  RH WIND       PRES   REMARKS
GOODLAND       CLOUDY    66  60  81 NE9       30.15S
HAYS           CLOUDY    68  57  68 CALM      30.09R
HILL CITY      LGT RAIN  69  67  93 SW3       30.11R FOG
RUSSELL        LGT RAIN  69  65  86 CALM      30.07R
$$

KSZ061>065-074>080-084>089-290500-
SOUTHWEST KANSAS

CITY           SKY/WX    TMP DP  RH WIND       PRES   REMARKS
DODGE CITY     CLEAR     71  66  84 E13G23    30.07R
ELKHART          N/A     70  59  68 SE7         N/A
GARDEN CITY    CLEAR     70  63  78 E18       30.09R
GREAT BEND     CLOUDY    70  61  73 CALM      30.07R
LIBERAL        PTCLDY    81  57  44 E9        30.04R
PRATT          CLEAR     68  62  80 E7        30.04S
$$

KSZ066>073-081>083-090>101-290500-
SOUTHEAST KANSAS

CITY           SKY/WX    TMP DP  RH WIND       PRES   REMARKS
CHANUTE        MOCLDY    76  66  71 N13       30.03R
COFFEYVILLE    MOCLDY    80  76  87 NW9       30.00R
HUTCHINSON     CLOUDY    69  66  90 CALM      30.02R
NEWTON         CLOUDY    71  69  93 S5        30.02S
PARSONS        PTCLDY    79  76  90 NW9       30.03R
WICHITA INTL   CLOUDY    72  68  87 CALM      30.00F
WICHITA JABRA  MOCLDY    70  70 100 S5        30.01F
WICHITA MCCONL MOCLDY    72  69  92 E5        30.01R
WINFIELD       CLOUDY    73  66  78 W7        29.99R
$$

KSZ007>012-019>026-033>040-048>060-102>105-290500-
NORTHEAST KANSAS

CITY           SKY/WX    TMP DP  RH WIND       PRES   REMARKS
CONCORDIA      CLOUDY    69  67  93 N5        30.04R
EMPORIA        LGT RAIN  68  66  93 NE12      30.02S
LAWRENCE       TSTM      70  67  90 W5        30.01R
MANHATTAN      MOCLDY    70  67  90 NW6       30.01R
MARYSVILLE     CLOUDY    72  68  88 NE3       30.02S
OLATHE IND     LGT RAIN  77  69  76 W10G16    30.02R
OLATHE EXE     CLOUDY    79  66  64 E3        30.00R
SALINA         CLOUDY    71  66  84 CALM      30.02R
TOPEKA BILLARD LGT RAIN  70  68  93 S14       29.98F
TOPEKA FORBES  RAIN      71  69  93 SE5       30.02S FOG
$$



USA.gov is the U.S. government's official web portal to all federal, state and local government web resources and services.